Location: Azul
(36.7830°S, 59.8500°W)
Time: 02:54:18
(UTC-03:00)

ISS - Pass Details

Date: 17 October 2017
Orbit: 400 x 408 km, 51.6° (Epoch: 24 October)

Event Time Altitude Azimuth Distance (km) Brightness Sun altitude
Exits shadow 04:42:29 - 217° (SW) 2,363 0.0 -17.7°
Rises 04:42:29 0° 216° (SW) 2,362 0.0 -17.7°
Reaches altitude 10° 04:46:00 10° 178° (S) 1,493 -0.6 -17.1°
Maximum altitude 04:46:59 11° 161° (SSE) 1,433 -0.4 -16.9°
Drops below altitude 10° 04:47:58 10° 143° (SE) 1,489 0.0 -16.7°
Sets 04:51:27 0° 105° (ESE) 2,343 1.7 -16.1°
